Home   Weather   Provo   Past weeks

Flag for USA Past Weather in Provo, Utah, USA — Yesterday and Last 2 Weeks

50 °F

Passing clouds.

Feels Like: 48 °F
Forecast: 49 / 63 °F
Wind: 6 mph from South

Location: Provo Municipal

Current Time: Oct 25, 2016 at 5:58:45 AM

Latest Report: Oct 25, 2016 at 4:56 AM

Visibility: 10 mi

Pressure: 30.09 "Hg (25.45 "Hg at 1386m altitude)

Humidity: 83%

Dew Point: 45 °F

Location of ProvoLocation

Past Weather in Provo — Graph


Provo Temperature Yesterday

Maximum temperature yesterday: 59 °F (at 10:58 AM)
Minimum temperature yesterday: 55 °F (at 12:56 AM)
Average temperature yesterday: 57 °F

High & Low Weather Summary for the Past Weeks

High79 °F (Oct 15, 3:58 PM)93% (Oct 19, 7:58 AM)30.50 "Hg (Oct 19, 7:58 AM)
Low28 °F (Oct 20, 7:58 AM)15% (Oct 22, 4:58 PM)29.49 "Hg (Oct 17, 12:56 AM)
Average55 °F52%30.05 "Hg
* Reported Oct 10 3:56 AM — Oct 25 3:56 AM, Provo, Weather by CustomWeather, © 2016

Note: Actual official high and low records may vary slightly from our data, if they occured in-between our weather recording intervals... More about our weather records


Provo Weather History for the Previous 24 Hours

Scroll right to see more
Time TempWeatherWind HumidityBarometerVisibility
3:56 AM
Tue, Oct 25
51 °FPassing clouds.5 mph83%30.09 "Hg10 mi
2:56 AM51 °FPassing clouds.6 mph83%30.09 "Hg10 mi
1:56 AM52 °FPassing clouds.No wind77%30.08 "Hg10 mi
12:56 AM54 °FOvercast.No wind80%30.06 "Hg10 mi
11:56 PM
Mon, Oct 24
55 °FOvercast.3 mph74%30.06 "Hg10 mi
10:56 PM55 °FPassing clouds.12 mph72%30.05 "Hg10 mi
9:56 PM56 °FPassing clouds.12 mph72%30.04 "Hg10 mi
8:58 PM55 °FOvercast.15 mph72%30.11 "Hg10 mi
7:58 PM55 °FLight rain. Overcast.3 mph77%30.13 "Hg10 mi
6:58 PM57 °FLight rain. Overcast.3 mph72%30.14 "Hg10 mi
5:58 PM57 °FScattered showers. More clouds than sun.3 mph72%30.15 "Hg10 mi
4:58 PM59 °FScattered showers. Overcast.3 mph63%30.17 "Hg10 mi
3:58 PM57 °FScattered showers. Broken clouds.3 mph82%30.18 "Hg10 mi
3:56 PM59 °FPartly sunny.7 mph69%30.10 "Hg10 mi
2:56 PM58 °FScattered clouds.3 mph78%30.10 "Hg10 mi
1:58 PM57 °FScattered showers. More clouds than sun.3 mph82%30.22 "Hg10 mi
12:58 PM55 °FLight rain. More clouds than sun.3 mph82%30.24 "Hg10 mi
11:58 AM55 °FScattered showers. Mostly cloudy.5 mph72%30.25 "Hg10 mi
10:58 AM59 °FScattered showers. Overcast.9 mph55%30.24 "Hg10 mi
9:58 AM55 °FScattered showers. Mostly cloudy.No wind67%30.24 "Hg10 mi
8:58 AM57 °FMostly cloudy.No wind51%30.20 "Hg10 mi
7:58 AM57 °FMostly cloudy.6 mph51%30.19 "Hg10 mi
6:56 AM57 °FMostly cloudy.6 mph49%30.09 "Hg10 mi
5:56 AM57 °FPassing clouds.6 mph49%30.04 "Hg10 mi
Weather by CustomWeather, © 2016

See weather overviewHow to use our weather pages